• MPC Preparation (Info)

  • MPEC 2015-G74 : 2015 GK13

    The following Minor Planet Electronic Circular may be linked-to from your own Web pages, but must not otherwise be redistributed electronically.

    A form allowing access to any MPEC is at the bottom of this page.


    Read MPEC 2015-G73 Read MPEC 2015-H01


    M.P.E.C. 2015-G74                                Issued 2015 Apr. 15, 23:16 UT
    
         The Minor Planet Electronic Circulars contain information on unusual
             minor planets and routine data on comets.  They are published
       on behalf of Commission 20 of the International Astronomical Union by the
              Minor Planet Center, Smithsonian Astrophysical Observatory,
                              Cambridge, MA 02138, U.S.A.
    
                 Prepared using the Tamkin Foundation Computer Network
    
                                  MPC@CFA.HARVARD.EDU
                URL https://www.minorplanetcenter.net/    ISSN 1523-6714
    
                                       2015 GK13
    
    Observations:
         K15G13K* C2015 04 14.34525 13 51 07.46 -06 47 25.4          20.9 VqEG074G96
         K15G13K  C2015 04 14.35734 13 51 10.58 -06 46 40.3          20.4 VqEG074G96
         K15G13K  C2015 04 14.36669 13 51 13.02 -06 46 05.9          21.0 VqEG074G96
         K15G13K KC2015 04 15.05803 13 54 26.28 -06 04 21.2                qEG074J95
         K15G13K KC2015 04 15.06659 13 54 28.41 -06 03 50.9          21.1 RqEG074J95
         K15G13K  C2015 04 15.33034 13 55 41.04 -05 47 51.6          21.4 VqEG074G96
         K15G13K  C2015 04 15.33106 13 55 41.21 -05 47 49.0          21.7 VqEG074G96
         K15G13K  C2015 04 15.34304 13 55 44.22 -05 47 05.5          20.9 VqEG074G96
         K15G13K  C2015 04 15.34377 13 55 44.36 -05 47 03.9          21.2 VqEG074G96
         K15G13K  C2015 04 15.35500 13 55 47.16 -05 46 23.7          22.0 VqEG074G96
         K15G13K  C2015 04 15.35573 13 55 47.35 -05 46 21.0          21.2 VqEG074G96
         K15G13K  C2015 04 15.36500 13 55 49.62 -05 45 47.9          21.4 VqEG074G96
         K15G13K  C2015 04 15.36573 13 55 49.80 -05 45 44.9          21.6 VqEG074G96
         K15G13K KC2015 04 15.93824 13 58 24.85 -05 12 22.2          21.0  qEG074104
         K15G13K KC2015 04 15.94584 13 58 26.69 -05 11 56.9                qEG074104
         K15G13K KC2015 04 15.95155 13 58 28.02 -05 11 35.6                qEG074104
    
    Observer details:
    104 San Marcello Pistoiese.  Observer P. Bacci.  Measurers P. Bacci, L. Tesi,
        G. Fagioli.  0.60-m f/4 reflector + CCD.
    G96 Mt. Lemmon Survey.  Observer J. A. Johnson.  Measurers E. J. Christensen,
        D. C. Fuls, A. R. Gibbs, A. D. Grauer, R. E. Hill, J. A. Johnson,
        R. A. Kowalski, S. M. Larson, R. G. Matheny, F. C. Shelly.  1.5-m
        reflector + CCD.
    J95 Great Shefford.  Observer P. Birtwhistle.  0.40-m f/6.0 Schmidt-Cassegrain
        + CCD.
    
    Orbital elements:
    2015 GK13                                                Earth MOID = 0.1075 AU
    Epoch 2015 June 27.0 TT = JDT 2457200.5                 MPC
    M  36.31851              (2000.0)            P               Q
    n   0.37325108     Peri.  339.12205     -0.99823302     +0.00522991
    a   1.9104485      Node   201.43592     +0.01000649     -0.96709777
    e   0.4259664      Incl.    9.32073     -0.05857224     -0.25435123
    P   2.64           H   25.0           G   0.15           U   8
    Residuals in seconds of arc
    150414 G96  0.0   0.4-    150415 G96  0.9-  0.2-    150415 G96  0.1-  0.4+
    150414 G96  0.0   0.0     150415 G96  0.0   0.7+    150415 104  0.7+  0.0
    150414 G96  0.3+  0.3-    150415 G96  0.5-  0.3-    150415 104  0.6+  1.0-
    150415 J95  0.6+  0.4+    150415 G96  0.0   0.2-    150415 104  0.3-  0.5+
    150415 J95  0.4-  0.2-    150415 G96  0.1+  0.1-
    150415 G96  0.7-  0.2-    150415 G96  0.1-  0.0
    
    Ephemeris:
    2015 GK13                a,e,i = 1.91, 0.43, 9                   q = 1.0967
    Date    TT    R. A. (2000) Decl.     Delta      r     Elong.  Phase     V
    2015 03 16    10 38 38.1 -33 28 46   0.1287  1.0983   141.5    34.3    22.2
    ...
    2015 03 31    12 22 36.2 -23 13 06   0.1080  1.1011   160.4    17.7    21.3
    ...
    2015 04 08    13 16 48.2 -13 53 07   0.1119  1.1121   172.5     6.8    21.0
    ...
    2015 04 14    13 49 29.1 -07 08 05   0.1222  1.1244   174.1     5.3    21.1
    2015 04 15    13 54 10.8 -06 06 54   0.1245  1.1268   173.3     6.0    21.2
    2015 04 16    13 58 39.9 -05 07 58   0.1269  1.1293   172.4     6.8    21.3
    ...
    2015 04 22    14 21 30.1 -00 05 19   0.1443  1.1460   166.7    11.7    21.8
    ...
    2015 04 30    14 43 03.9 +04 25 52   0.1741  1.1727   160.6    16.6    22.4
    ...
    2015 05 15    15 06 33.3 +07 51 08   0.2456  1.2347   153.1    21.8    23.5
    
    A. U. Tomatic                (C) Copyright 2015 MPC           M.P.E.C. 2015-G74
    

    Read MPEC 2015-G73 Read MPEC 2015-H01


    MPEC number:

    Enter an MPEC number in one of the following forms:

    • 1997-B01 (the full form)
    • J97B01 (the packed version of the full form)
    • B01 (the abbreviated form)